User: anonymous   Login
Location: Unspecified
(0.0000°N, 0.0000°E)
Time: 19:03:47
(UTC+01:00)
Language:

Cosmos 1933 - Orbit

View from above orbital plane
View from above orbital plane
View from above satellite
View from above satellite

Ground track
Ground track

The orbit data is extracted from the following two-line orbital elements,

1 18958U 88020A   17056.97232858  .00000835  00000-0  59715-4 0  9999
2 18958  82.5293 211.1446 0010419 304.9408  55.0838 15.03154857574828
Epoch (UTC): 25 February 2017 23:20:09
Eccentricity: 0.0010419
inclination: 82.5293°
perigee height: 550 km
apogee height: 564 km
right ascension of ascending node: 211.1446°
argument of perigee: 304.9408°
revolutions per day: 15.03154857
mean anomaly at epoch: 55.0838°
orbit number at epoch: 57482

The dashed part of the orbit path shows where the satellite is in the earth's shadow,  

DLR